Regional Weather Roundup
Issued by NWS Kansas City/Pleasant Hill, MO

Home | Current Version | Previous Version | Text Only | Print | Product List | Glossary On
Versions: 1 2 3 4 5 6 7 8 9 10 11 12 13 14 15 16 17 18 19 20 21 22 23 24 25 26 27 28 29 30 31 32 33 34 35 36 37 38 39 40 41 42 43 44 45 46 47 48 49 50
000
ASUS43 KEAX 281811
RWREAX

WEATHER ROUNDUP FOR EASTERN KANSAS AND NORTHWEST MISSOURI
NATIONAL WEATHER SERVICE KANSAS CITY/PLEASANT HILL MO
1200 PM CST WED JAN 28 2015

KSZ040-057-103>105-MOZ028-029-037-043-281900-
...KANSAS CITY METROPOLITAN AREA...

CITY           SKY/WX    TMP DP  RH WIND       PRES   REMARKS
K.C. INTL      PTSUNNY   66  38  35 S18       29.84F
6HR MIN TEMP:  39; 6HR MAX TEMP:  66;

K.C. DOWNTOWN  FAIR      67  37  33 S12       29.84F
6HR MIN TEMP:  37; 6HR MAX TEMP:  68;

LEES SUMMIT    FAIR      64  37  36 S12       29.88F
6HR MIN TEMP:  41; 6HR MAX TEMP:  64;

OLATHE - IXD   FAIR      66  38  35 S20G26    29.85F
6HR MIN TEMP:  41; 6HR MAX TEMP:  66;

OLATHE - OJC   FAIR      65  39  38 S18G25    29.85F
6HR MIN TEMP:  38; 6HR MAX TEMP:  65;

LAWRENCE       FAIR      66  37  34 S12G22    29.83F

$$

MOZ001>008-011>017-020>025-030>033-038>040-044>046-053-054-281900-
...NORTHERN AND CENTRAL MISSOURI...

CITY           SKY/WX    TMP DP  RH WIND       PRES   REMARKS
ST. JOSEPH     FAIR      62  38  40 S14       29.82F
6HR MIN TEMP:  34; 6HR MAX TEMP:  62;

MOSBY          FAIR      61  36  39 S14G21    29.86F
WARRENSBURG    FAIR      63  36  36 S17G23    29.90F
WHITEMAN AFB   MOSUNNY   60  39  45 S18       29.91F
6HR MIN TEMP:  40; 6HR MAX TEMP:  60;

CLINTON        FAIR      63  39  42 S18       29.95F
SEDALIA        LGT RAIN  61  37  41 S18G29    29.96F
6HR MIN TEMP:  39; 6HR MAX TEMP:  61; 6HR PCP: TRACE;

WARSAW         NOT AVBL
MARSHALL       FAIR      57  41  54 S15       29.98F
CHILLICOTHE      N/A     54  38  54 S12       29.91F
6HR MIN TEMP:  33; 6HR MAX TEMP:  54;

MOBERLY        FAIR      46  34  61 SE15      30.00F
KIRKSVILLE     FAIR      43  35  73 SE16      29.95F
6HR MIN TEMP:  28; 6HR MAX TEMP:  43;


$$

MOZ041-047>049-056>058-063>065-088>090-097-281900-
...EASTERN AND SOUTHERN MISSOURI...

CITY           SKY/WX    TMP DP  RH WIND       PRES   REMARKS
ST. LOUIS INTL PTSUNNY   43  29  57 S17       30.15F
6HR MIN TEMP:  30; 6HR MAX TEMP:  43;

SPIRIT OF STL  FAIR      45  29  53 SE9G22    30.12F
COLUMBIA       FAIR      50  34  54 S22       30.02F
JEFFERSON CITY FAIR      51  33  50 SE17      30.04F
MEXICO         FAIR      46  37  71 S17       30.03F
HANNIBAL       FAIR      45  28  53 SE12G22   30.03F
ROLLA          FAIR      48  33  56 S22       30.06F
LEBANON        FAIR      55  34  44 S17       30.04F
OSAGE BEACH    FAIR      54  34  47 S17       30.03F
SPRINGFIELD    FAIR      57  36  45 S22       30.01F
BRANSON        MOSUNNY   63  37  39 SE15G21   30.09F
JOPLIN         FAIR      71  37  28 S21G36    29.96F
WEST PLAINS    FAIR      46  31  55 S14       30.17F

$$

IAZ060-094-KSZ022-034>040-054-083-096-NEZ052-066-093-281900-
...KANSAS...SOUTHEAST NEBRASKA AND IOWA...

CITY           SKY/WX    TMP DP  RH WIND       PRES   REMARKS
TOPEKA         FAIR      67  37  33 S14G21    29.81F
6HR MIN TEMP:  32; 6HR MAX TEMP:  67;

MANHATTAN      FAIR      65  38  36 SW16      29.78F
EMPORIA        FAIR      68  37  32 S18       29.81F
CHANUTE        FAIR      71  39  31 S24       29.89F
WICHITA        PTSUNNY   68  38  33 SW20      29.85S
OMAHA          PTSUNNY   46  33  60 S10       29.78F
LINCOLN        FAIR      49  33  54 CALM      29.78F
FALLS CITY     FAIR      61  37  41 S15       29.76F
LAMONI         FAIR      45  34  65 S14G23    29.85F
DES MOINES     CLOUDY    41  32  70 S15       29.88F WCI  33

$$




USA.gov is the U.S. government's official web portal to all federal, state and local government web resources and services.